Location: A�t Bou Chrif
(32.7193°N, 5.2385°W)
Time: 02:30:27
(UTC+00:00)

MOS 1 Rocket - Pass Details

Date: 08 August 2020
Orbit: 614 x 830 km, 97.4° (Epoch: 20 September)

Event Time Altitude Azimuth Distance (km) Brightness Sun altitude
Rises 19:54:53 0° 7° (N) 3,377 7.1 -9.0°
Reaches altitude 10° 19:57:17 10° 5° (N) 2,437 6.4 -9.5°
Maximum altitude 20:02:40 66° 284° (WNW) 892 4.1 -10.5°
Drops below altitude 10° 20:07:52 10° 203° (SSW) 2,356 6.0 -11.5°
Sets 20:10:10 0° 201° (SSW) 3,256 6.7 -11.9°
